UAL624 KAUS-KDEN

Flight info

Callsign UAL624
Flight time 1h 50m
Altitude 38000
Route ELOEL3 ABI PNH ZIGEE NIIXX4
Aircraft B738/M-SDE2E3FGHIRWXY/LB1

Departure

Time 2026-05-06 22:21
Airport Austin Bergstrom International Airport (KAUS)

Arrival

Time 2026-05-07 00:11
Airport Denver International Airport (KDEN)
Time Latitude Longitude Altitude Speed Heading
2026-05-06 21:23 30.20265 -97.67069 526 ft 0 kts 179°
2026-05-06 22:01 30.20268 -97.67069 526 ft 2 kts 179°
2026-05-06 22:01 30.20285 -97.67068 526 ft 2 kts 185°
2026-05-06 22:01 30.20301 -97.67066 526 ft 2 kts 195°
2026-05-06 22:02 30.20316 -97.67058 526 ft 2 kts 226°
2026-05-06 22:02 30.20323 -97.67042 526 ft 2 kts 266°
2026-05-06 22:02 30.20323 -97.67037 526 ft 0 kts 268°
2026-05-06 22:07 30.20323 -97.67038 526 ft 1 kts 268°
2026-05-06 22:07 30.20323 -97.67061 526 ft 6 kts 269°
2026-05-06 22:07 30.20322 -97.67133 526 ft 11 kts 270°
2026-05-06 22:07 30.20293 -97.67211 526 ft 12 kts 196°
2026-05-06 22:08 30.20214 -97.67211 526 ft 11 kts 179°
2026-05-06 22:08 30.20136 -97.67209 526 ft 11 kts 179°
2026-05-06 22:08 30.20089 -97.67264 526 ft 11 kts 261°
2026-05-06 22:08 30.20088 -97.67274 526 ft 0 kts 262°
2026-05-06 22:09 30.20080 -97.67284 526 ft 3 kts 224°
2026-05-06 22:09 30.20073 -97.67275 526 ft 4 kts 94°
2026-05-06 22:09 30.20082 -97.67234 526 ft 6 kts 73°
2026-05-06 22:09 30.20090 -97.67175 526 ft 9 kts 88°
2026-05-06 22:10 30.20092 -97.67095 526 ft 11 kts 89°
2026-05-06 22:10 30.20092 -97.67022 526 ft 7 kts 99°
2026-05-06 22:10 30.20056 -97.66988 526 ft 7 kts 174°
2026-05-06 22:10 30.20007 -97.66987 526 ft 7 kts 179°
2026-05-06 22:11 30.19958 -97.66986 526 ft 7 kts 179°
2026-05-06 22:11 30.19914 -97.66967 526 ft 8 kts 135°
2026-05-06 22:11 30.19903 -97.66896 526 ft 11 kts 88°
2026-05-06 22:11 30.19905 -97.66795 526 ft 14 kts 88°
2026-05-06 22:12 30.19908 -97.66673 526 ft 16 kts 89°
2026-05-06 22:12 30.19910 -97.66534 526 ft 19 kts 88°
2026-05-06 22:12 30.19915 -97.66380 526 ft 19 kts 86°
2026-05-06 22:12 30.19921 -97.66245 526 ft 15 kts 88°
2026-05-06 22:13 30.19923 -97.66124 526 ft 15 kts 90°
2026-05-06 22:13 30.19922 -97.66009 526 ft 14 kts 90°
2026-05-06 22:13 30.19895 -97.65910 526 ft 13 kts 152°
2026-05-06 22:13 30.19804 -97.65901 526 ft 13 kts 179°
2026-05-06 22:14 30.19715 -97.65898 526 ft 13 kts 179°
2026-05-06 22:14 30.19628 -97.65897 526 ft 12 kts 179°
2026-05-06 22:14 30.19544 -97.65895 526 ft 12 kts 179°
2026-05-06 22:14 30.19461 -97.65892 527 ft 12 kts 179°
2026-05-06 22:15 30.19374 -97.65890 527 ft 13 kts 179°
2026-05-06 22:15 30.19275 -97.65887 527 ft 15 kts 178°
2026-05-06 22:15 30.19165 -97.65883 527 ft 17 kts 179°
2026-05-06 22:15 30.19044 -97.65880 527 ft 18 kts 179°
2026-05-06 22:16 30.18913 -97.65877 527 ft 20 kts 179°
2026-05-06 22:16 30.18772 -97.65874 527 ft 21 kts 179°
2026-05-06 22:16 30.18620 -97.65871 526 ft 23 kts 179°
2026-05-06 22:16 30.18467 -97.65867 526 ft 20 kts 178°
2026-05-06 22:17 30.18329 -97.65863 526 ft 20 kts 178°
2026-05-06 22:17 30.18195 -97.65859 526 ft 19 kts 179°
2026-05-06 22:17 30.18066 -97.65856 526 ft 18 kts 179°
2026-05-06 22:17 30.17978 -97.65855 526 ft 10 kts 179°
2026-05-06 22:18 30.17926 -97.65839 526 ft 7 kts 132°
2026-05-06 22:18 30.17921 -97.65829 527 ft 0 kts 112°
2026-05-06 22:19 30.17920 -97.65823 527 ft 4 kts 108°
2026-05-06 22:20 30.17918 -97.65763 527 ft 10 kts 87°
2026-05-06 22:20 30.17966 -97.65727 526 ft 9 kts 356°
2026-05-06 22:20 30.17972 -97.65728 526 ft 7 kts 355°
2026-05-06 22:20 30.18270 -97.65737 525 ft 78 kts 359°
2026-05-06 22:21 30.19030 -97.65756 530 ft 137 kts 358°
2026-05-06 22:21 30.20061 -97.65791 1017 ft 149 kts 358°
2026-05-06 22:21 30.21104 -97.65950 1660 ft 156 kts 340°
2026-05-06 22:21 30.22078 -97.66507 2386 ft 155 kts 337°
2026-05-06 22:22 30.23109 -97.67119 2807 ft 179 kts 333°
2026-05-06 22:22 30.24268 -97.67805 3224 ft 198 kts 335°
2026-05-06 22:22 30.25591 -97.68512 3429 ft 221 kts 333°
2026-05-06 22:22 30.27060 -97.69246 3778 ft 235 kts 338°
2026-05-06 22:23 30.28654 -97.69828 4300 ft 243 kts 340°
2026-05-06 22:23 30.30359 -97.70412 4528 ft 267 kts 341°
2026-05-06 22:23 30.32172 -97.71034 5169 ft 273 kts 341°
2026-05-06 22:23 30.33998 -97.71666 5955 ft 275 kts 340°
2026-05-06 22:24 30.35841 -97.72309 6680 ft 279 kts 340°
2026-05-06 22:24 30.37704 -97.72965 7392 ft 281 kts 339°
2026-05-06 22:24 30.39562 -97.73624 8061 ft 285 kts 338°
2026-05-06 22:24 30.41496 -97.74315 8784 ft 288 kts 338°
2026-05-06 22:25 30.43397 -97.74995 9476 ft 291 kts 338°
2026-05-06 22:25 30.45343 -97.75694 10145 ft 295 kts 337°
2026-05-06 22:25 30.47357 -97.76423 10397 ft 314 kts 337°
2026-05-06 22:25 30.49512 -97.77207 10574 ft 335 kts 337°
2026-05-06 22:26 30.51835 -97.78050 10741 ft 354 kts 338°
2026-05-06 22:26 30.54187 -97.78899 11140 ft 363 kts 338°
2026-05-06 22:26 30.56612 -97.79770 11721 ft 367 kts 337°
2026-05-06 22:26 30.59054 -97.80648 12025 ft 369 kts 337°
2026-05-06 22:27 30.61516 -97.81534 12047 ft 372 kts 337°
2026-05-06 22:27 30.64005 -97.82433 12583 ft 375 kts 336°
2026-05-06 22:27 30.66505 -97.83336 13265 ft 377 kts 336°
2026-05-06 22:27 30.69021 -97.84246 13870 ft 381 kts 336°
2026-05-06 22:28 30.71564 -97.85168 14400 ft 385 kts 336°
2026-05-06 22:28 30.74126 -97.86097 15003 ft 387 kts 335°
2026-05-06 22:28 30.76700 -97.87030 15600 ft 389 kts 335°
2026-05-06 22:28 30.79297 -97.87973 16178 ft 392 kts 335°
2026-05-06 22:29 30.81915 -97.88924 16765 ft 396 kts 335°
2026-05-06 22:29 30.84556 -97.89884 17337 ft 399 kts 335°
2026-05-06 22:29 30.87218 -97.90851 17917 ft 402 kts 335°
2026-05-06 22:29 30.89897 -97.91831 18452 ft 405 kts 334°
2026-05-06 22:30 30.92499 -97.93048 18909 ft 401 kts 326°
2026-05-06 22:30 30.94994 -97.94516 19411 ft 403 kts 324°
2026-05-06 22:30 30.97483 -97.96038 19906 ft 405 kts 324°
2026-05-06 22:30 30.99992 -97.97570 20422 ft 409 kts 323°
2026-05-06 22:31 31.02523 -97.99093 20969 ft 410 kts 323°
2026-05-06 22:31 31.05076 -98.00611 21465 ft 413 kts 323°
2026-05-06 22:31 31.07652 -98.02133 21922 ft 417 kts 323°
2026-05-06 22:31 31.10251 -98.03664 22371 ft 420 kts 323°
2026-05-06 22:32 31.12871 -98.05209 22832 ft 423 kts 323°
2026-05-06 22:32 31.15481 -98.06805 23282 ft 421 kts 319°
2026-05-06 22:32 31.17843 -98.08772 23685 ft 413 kts 310°
2026-05-06 22:32 31.19847 -98.11106 24073 ft 404 kts 302°
2026-05-06 22:33 31.21689 -98.13581 24477 ft 404 kts 301°
2026-05-06 22:33 31.23526 -98.16075 24840 ft 406 kts 301°
2026-05-06 22:33 31.25372 -98.18584 25197 ft 408 kts 301°
2026-05-06 22:33 31.27231 -98.21099 25697 ft 407 kts 302°
2026-05-06 22:34 31.29085 -98.23595 26139 ft 407 kts 302°
2026-05-06 22:34 31.30953 -98.26109 26400 ft 412 kts 302°
2026-05-06 22:34 31.32841 -98.28647 26669 ft 415 kts 302°
2026-05-06 22:34 31.34732 -98.31186 26993 ft 417 kts 302°
2026-05-06 22:35 31.36646 -98.33754 27322 ft 419 kts 301°
2026-05-06 22:35 31.38570 -98.36335 27607 ft 423 kts 301°
2026-05-06 22:35 31.40508 -98.38938 27880 ft 426 kts 301°
2026-05-06 22:35 31.42456 -98.41555 28187 ft 427 kts 301°
2026-05-06 22:36 31.44410 -98.44181 28499 ft 428 kts 301°
2026-05-06 22:36 31.46373 -98.46821 28773 ft 431 kts 301°
2026-05-06 22:36 31.48342 -98.49473 29035 ft 433 kts 301°
2026-05-06 22:36 31.50323 -98.52143 29300 ft 435 kts 301°
2026-05-06 22:37 31.52311 -98.54822 29743 ft 433 kts 300°
2026-05-06 22:37 31.54259 -98.57437 30428 ft 424 kts 300°
2026-05-06 22:37 31.56188 -98.60030 30892 ft 420 kts 300°
2026-05-06 22:37 31.58105 -98.62617 31201 ft 421 kts 300°
2026-05-06 22:38 31.60023 -98.65215 31461 ft 422 kts 299°
2026-05-06 22:38 31.61939 -98.67813 31829 ft 420 kts 299°
2026-05-06 22:38 31.63844 -98.70392 32278 ft 417 kts 299°
2026-05-06 22:38 31.65734 -98.72950 32726 ft 414 kts 299°
2026-05-06 22:39 31.67617 -98.75502 33102 ft 413 kts 298°
2026-05-06 22:39 31.69495 -98.78051 33447 ft 412 kts 298°
2026-05-06 22:39 31.71365 -98.80592 33783 ft 411 kts 298°
2026-05-06 22:39 31.73228 -98.83125 34112 ft 409 kts 298°
2026-05-06 22:40 31.75087 -98.85652 34411 ft 408 kts 298°
2026-05-06 22:40 31.76937 -98.88168 34768 ft 406 kts 297°
2026-05-06 22:40 31.78777 -98.90674 35095 ft 404 kts 297°
2026-05-06 22:40 31.80608 -98.93166 35406 ft 402 kts 297°
2026-05-06 22:41 31.84220 -98.98091 35977 ft 399 kts 297°
2026-05-06 22:41 31.86028 -99.00559 36285 ft 397 kts 297°
2026-05-06 22:41 31.87821 -99.03007 36565 ft 395 kts 297°
2026-05-06 22:42 31.89616 -99.05460 36829 ft 394 kts 297°
2026-05-06 22:42 31.89840 -99.05767 36861 ft 394 kts 297°
2026-05-06 22:42 31.91081 -99.07464 37033 ft 393 kts 297°
2026-05-06 22:43 31.92860 -99.09899 37292 ft 392 kts 297°
2026-05-06 22:43 31.94636 -99.12334 37491 ft 392 kts 297°
2026-05-06 22:43 31.96410 -99.14766 37711 ft 391 kts 297°
2026-05-06 22:43 31.98181 -99.17193 37982 ft 390 kts 297°
2026-05-06 22:44 31.99952 -99.19626 37952 ft 393 kts 297°
2026-05-06 22:44 32.03512 -99.24518 37973 ft 392 kts 296°
2026-05-06 22:45 32.07042 -99.29363 37974 ft 387 kts 296°
2026-05-06 22:45 32.10530 -99.34160 37973 ft 383 kts 296°
2026-05-06 22:46 32.13988 -99.38930 37986 ft 383 kts 296°
2026-05-06 22:46 32.17469 -99.43753 37984 ft 389 kts 296°
2026-05-06 22:47 32.21011 -99.48657 37978 ft 395 kts 296°
2026-05-06 22:47 32.24599 -99.53621 37975 ft 399 kts 296°
2026-05-06 22:48 32.28203 -99.58602 37974 ft 394 kts 296°
2026-05-06 22:48 32.31712 -99.63448 37963 ft 385 kts 295°
2026-05-06 22:49 32.35178 -99.68278 38008 ft 385 kts 295°
2026-05-06 22:49 32.38648 -99.73115 38017 ft 386 kts 295°
2026-05-06 22:50 32.42129 -99.77966 37995 ft 387 kts 295°
2026-05-06 22:50 32.45619 -99.82833 37983 ft 388 kts 295°
2026-05-06 22:50 32.47512 -99.85178 37984 ft 402 kts 303°
2026-05-06 22:51 32.49722 -99.87291 37999 ft 416 kts 309°
2026-05-06 22:51 32.52249 -99.89104 38007 ft 430 kts 315°
2026-05-06 22:51 32.54849 -99.90780 37993 ft 432 kts 316°
2026-05-06 22:52 32.60165 -99.94134 37987 ft 433 kts 316°
2026-05-06 22:52 32.65477 -99.97506 37976 ft 432 kts 315°
2026-05-06 22:53 32.70754 -100.00895 37975 ft 431 kts 315°
2026-05-06 22:53 32.76013 -100.04293 38013 ft 430 kts 315°
2026-05-06 22:54 32.81260 -100.07693 37985 ft 429 kts 315°
2026-05-06 22:54 32.86495 -100.11090 37977 ft 428 kts 315°
2026-05-06 22:55 32.91717 -100.14480 37980 ft 427 kts 315°
2026-05-06 22:55 32.96925 -100.17867 37983 ft 426 kts 315°
2026-05-06 22:56 33.02121 -100.21251 37997 ft 425 kts 315°
2026-05-06 22:56 33.07314 -100.24639 37986 ft 425 kts 315°
2026-05-06 22:57 33.12505 -100.28029 37986 ft 425 kts 315°
2026-05-06 22:57 33.17631 -100.31381 37985 ft 425 kts 315°
2026-05-06 22:58 33.22816 -100.34776 37985 ft 425 kts 315°
2026-05-06 22:58 33.27996 -100.38173 37993 ft 425 kts 315°
2026-05-06 22:59 33.33179 -100.41576 37991 ft 425 kts 315°
2026-05-06 22:59 33.38362 -100.44987 37987 ft 425 kts 315°
2026-05-06 23:00 33.43539 -100.48397 37989 ft 425 kts 315°
2026-05-06 23:00 33.48728 -100.51811 38004 ft 426 kts 315°
2026-05-06 23:01 33.53877 -100.55209 38001 ft 426 kts 315°
2026-05-06 23:01 33.59099 -100.58661 38014 ft 425 kts 315°
2026-05-06 23:02 33.64240 -100.62064 38006 ft 425 kts 315°
2026-05-06 23:02 33.69406 -100.65488 38009 ft 424 kts 315°
2026-05-06 23:03 33.74567 -100.68914 38009 ft 423 kts 314°
2026-05-06 23:03 33.79724 -100.72344 38028 ft 424 kts 314°
2026-05-06 23:04 33.84876 -100.75773 38016 ft 423 kts 314°
2026-05-06 23:04 33.90021 -100.79201 38021 ft 422 kts 314°
2026-05-06 23:05 33.95154 -100.82627 38005 ft 422 kts 314°
2026-05-06 23:05 34.00277 -100.86050 38078 ft 420 kts 314°
2026-05-06 23:06 34.05396 -100.89479 38028 ft 421 kts 314°
2026-05-06 23:06 34.09651 -100.92331 38015 ft 421 kts 314°
2026-05-06 23:07 34.14763 -100.95760 38019 ft 420 kts 314°
2026-05-06 23:07 34.19866 -100.99189 38021 ft 420 kts 314°
2026-05-06 23:08 34.24965 -101.02621 38080 ft 419 kts 314°
2026-05-06 23:08 34.30069 -101.06063 38030 ft 420 kts 314°
2026-05-06 23:09 34.35171 -101.09505 38016 ft 420 kts 314°
2026-05-06 23:09 34.40266 -101.12947 38018 ft 419 kts 314°
2026-05-06 23:10 34.45352 -101.16387 38031 ft 418 kts 314°
2026-05-06 23:10 34.50431 -101.19829 38039 ft 419 kts 313°
2026-05-06 23:11 34.55512 -101.23280 38031 ft 418 kts 313°
2026-05-06 23:11 34.60588 -101.26730 38028 ft 418 kts 313°
2026-05-06 23:12 34.65658 -101.30178 38001 ft 417 kts 313°
2026-05-06 23:12 34.70728 -101.33649 38038 ft 421 kts 314°
2026-05-06 23:13 34.75874 -101.37173 38069 ft 427 kts 314°
2026-05-06 23:13 34.81073 -101.40720 38034 ft 427 kts 313°
2026-05-06 23:14 34.86265 -101.44295 38032 ft 429 kts 314°
2026-05-06 23:14 34.91477 -101.47841 38033 ft 428 kts 314°
2026-05-06 23:15 34.96663 -101.51390 38094 ft 427 kts 314°
2026-05-06 23:15 35.01791 -101.54912 38044 ft 425 kts 314°
2026-05-06 23:16 35.06927 -101.58444 38026 ft 422 kts 314°
2026-05-06 23:16 35.12015 -101.61953 38025 ft 418 kts 314°
2026-05-06 23:17 35.17064 -101.65443 38067 ft 415 kts 314°
2026-05-06 23:17 35.22083 -101.68916 38116 ft 414 kts 314°
2026-05-06 23:17 35.24675 -101.70544 38073 ft 427 kts 321°
2026-05-06 23:18 35.27459 -101.71894 38088 ft 431 kts 323°
2026-05-06 23:18 35.33106 -101.74421 38080 ft 432 kts 323°
2026-05-06 23:19 35.38737 -101.76932 38069 ft 430 kts 323°
2026-05-06 23:19 35.44354 -101.79489 38059 ft 430 kts 323°
2026-05-06 23:20 35.49954 -101.82069 38066 ft 430 kts 323°
2026-05-06 23:20 35.55556 -101.84662 38059 ft 431 kts 323°
2026-05-06 23:21 35.61175 -101.87266 38070 ft 432 kts 323°
2026-05-06 23:21 35.66813 -101.89883 38151 ft 434 kts 323°
2026-05-06 23:22 35.72478 -101.92515 38096 ft 436 kts 323°
2026-05-06 23:22 35.78166 -101.95159 38090 ft 437 kts 323°
2026-05-06 23:23 35.83861 -101.97810 38086 ft 438 kts 323°
2026-05-06 23:23 35.89558 -102.00466 38077 ft 437 kts 323°
2026-05-06 23:24 35.95258 -102.03127 38082 ft 439 kts 324°
2026-05-06 23:24 36.00951 -102.05801 38090 ft 437 kts 325°
2026-05-06 23:25 36.06637 -102.08461 38089 ft 436 kts 325°
2026-05-06 23:25 36.12300 -102.11113 38091 ft 434 kts 325°
2026-05-06 23:26 36.17946 -102.13767 38105 ft 434 kts 326°
2026-05-06 23:26 36.23576 -102.16417 38113 ft 432 kts 326°
2026-05-06 23:27 36.29191 -102.19065 38102 ft 431 kts 326°
2026-05-06 23:27 36.34785 -102.21707 38113 ft 430 kts 326°
2026-05-06 23:28 36.40369 -102.24351 38109 ft 430 kts 327°
2026-05-06 23:28 36.45955 -102.26998 38116 ft 430 kts 327°
2026-05-06 23:29 36.51542 -102.29650 38125 ft 430 kts 327°
2026-05-06 23:29 36.57130 -102.32306 38120 ft 430 kts 327°
2026-05-06 23:30 36.62734 -102.34976 38126 ft 432 kts 328°
2026-05-06 23:30 36.68355 -102.37656 38125 ft 433 kts 328°
2026-05-06 23:31 36.73984 -102.40343 38123 ft 434 kts 328°
2026-05-06 23:31 36.79621 -102.43042 38130 ft 434 kts 328°
2026-05-06 23:32 36.85240 -102.45734 38135 ft 437 kts 329°
2026-05-06 23:32 36.90915 -102.48454 38133 ft 437 kts 329°
2026-05-06 23:33 36.96600 -102.51184 38124 ft 438 kts 329°
2026-05-06 23:33 37.02282 -102.53917 38124 ft 437 kts 329°
2026-05-06 23:34 37.07961 -102.56655 38133 ft 437 kts 330°
2026-05-06 23:34 37.13630 -102.59391 38139 ft 436 kts 330°
2026-05-06 23:35 37.19279 -102.62123 38134 ft 434 kts 330°
2026-05-06 23:35 37.24907 -102.64848 38147 ft 433 kts 329°
2026-05-06 23:36 37.30522 -102.67574 38158 ft 432 kts 330°
2026-05-06 23:36 37.36117 -102.70293 38167 ft 431 kts 330°
2026-05-06 23:37 37.41695 -102.73008 38168 ft 429 kts 330°
2026-05-06 23:37 37.47254 -102.75719 38172 ft 428 kts 330°
2026-05-06 23:38 37.52801 -102.78436 38188 ft 428 kts 330°
2026-05-06 23:38 37.58309 -102.81345 38200 ft 432 kts 329°
2026-05-06 23:39 37.63850 -102.84354 38187 ft 435 kts 329°
2026-05-06 23:39 37.69392 -102.87349 38193 ft 437 kts 329°
2026-05-06 23:40 37.74999 -102.90365 38189 ft 438 kts 329°
2026-05-06 23:40 37.80610 -102.93383 38185 ft 438 kts 329°
2026-05-06 23:41 37.86199 -102.96393 38182 ft 436 kts 329°
2026-05-06 23:41 37.91759 -102.99393 38189 ft 433 kts 329°
2026-05-06 23:42 37.97295 -103.02388 38186 ft 432 kts 330°
2026-05-06 23:42 38.02803 -103.05372 38181 ft 430 kts 330°
2026-05-06 23:43 38.08290 -103.08350 38189 ft 428 kts 330°
2026-05-06 23:43 38.13758 -103.11322 38185 ft 427 kts 330°
2026-05-06 23:44 38.19216 -103.14297 38182 ft 426 kts 331°
2026-05-06 23:44 38.24655 -103.17261 38175 ft 424 kts 331°
2026-05-06 23:45 38.30068 -103.20217 38114 ft 424 kts 331°
2026-05-06 23:45 38.32797 -103.21712 37655 ft 427 kts 331°
2026-05-06 23:45 38.35519 -103.23200 37098 ft 425 kts 331°
2026-05-06 23:45 38.38206 -103.24668 36912 ft 415 kts 332°
2026-05-06 23:46 38.40841 -103.26115 36636 ft 413 kts 332°
2026-05-06 23:46 38.43489 -103.27579 36169 ft 414 kts 332°
2026-05-06 23:46 38.46136 -103.29046 35623 ft 415 kts 332°
2026-05-06 23:46 38.48787 -103.30517 35032 ft 417 kts 332°
2026-05-06 23:47 38.51455 -103.31997 34396 ft 420 kts 333°
2026-05-06 23:47 38.54106 -103.33468 33681 ft 423 kts 333°
2026-05-06 23:47 38.56846 -103.34989 32968 ft 424 kts 333°
2026-05-06 23:47 38.59557 -103.36493 32313 ft 425 kts 334°
2026-05-06 23:48 38.62229 -103.37976 31773 ft 423 kts 334°
2026-05-06 23:48 38.64895 -103.39462 31623 ft 411 kts 334°
2026-05-06 23:48 38.67455 -103.40903 31687 ft 394 kts 334°
2026-05-06 23:48 38.69924 -103.42312 31536 ft 385 kts 334°
2026-05-06 23:49 38.72360 -103.43732 30987 ft 386 kts 333°
2026-05-06 23:49 38.74811 -103.45206 30201 ft 393 kts 333°
2026-05-06 23:49 38.77283 -103.46741 29423 ft 396 kts 332°
2026-05-06 23:49 38.79743 -103.48288 29016 ft 390 kts 333°
2026-05-06 23:50 38.82122 -103.49852 28893 ft 377 kts 333°
2026-05-06 23:50 38.86515 -103.53165 28480 ft 360 kts 330°
2026-05-06 23:50 38.88635 -103.54899 27791 ft 364 kts 329°
2026-05-06 23:51 38.90780 -103.56684 26998 ft 371 kts 328°
2026-05-06 23:51 38.92957 -103.58487 26396 ft 372 kts 328°
2026-05-06 23:51 38.95129 -103.60254 26109 ft 366 kts 328°
2026-05-06 23:51 38.97262 -103.61950 25959 ft 356 kts 329°
2026-05-06 23:52 38.99358 -103.63575 25697 ft 349 kts 329°
2026-05-06 23:52 39.01448 -103.65164 25246 ft 349 kts 330°
2026-05-06 23:52 39.03525 -103.66803 24734 ft 351 kts 329°
2026-05-06 23:52 39.05404 -103.68842 23958 ft 364 kts 306°
2026-05-06 23:53 39.06402 -103.71811 23657 ft 362 kts 292°
2026-05-06 23:53 39.07070 -103.73772 23107 ft 362 kts 302°
2026-05-06 23:53 39.08976 -103.77350 22279 ft 362 kts 308°
2026-05-06 23:53 39.09950 -103.79083 21975 ft 360 kts 308°
2026-05-06 23:54 39.11388 -103.81698 21538 ft 356 kts 307°
2026-05-06 23:54 39.12783 -103.84314 21096 ft 353 kts 306°
2026-05-06 23:54 39.14145 -103.86931 20584 ft 352 kts 306°
2026-05-06 23:54 39.15493 -103.89561 20073 ft 351 kts 306°
2026-05-06 23:55 39.16825 -103.92182 19689 ft 348 kts 305°
2026-05-06 23:55 39.18137 -103.94778 19303 ft 344 kts 305°
2026-05-06 23:55 39.19436 -103.97353 18902 ft 341 kts 305°
2026-05-06 23:55 39.20721 -103.99905 18531 ft 338 kts 304°
2026-05-06 23:56 39.21994 -104.02435 18067 ft 335 kts 304°
2026-05-06 23:56 39.23257 -104.04949 17633 ft 332 kts 304°
2026-05-06 23:56 39.24507 -104.07439 17212 ft 329 kts 304°
2026-05-06 23:56 39.25746 -104.09907 16788 ft 326 kts 304°
2026-05-06 23:57 39.26971 -104.12348 16523 ft 319 kts 304°
2026-05-06 23:57 39.28154 -104.14709 16425 ft 308 kts 304°
2026-05-06 23:57 39.29314 -104.17024 15985 ft 305 kts 304°
2026-05-06 23:57 39.30294 -104.19402 15646 ft 300 kts 289°
2026-05-06 23:58 39.30741 -104.21995 15341 ft 292 kts 283°
2026-05-06 23:58 39.31128 -104.24534 15017 ft 286 kts 283°
2026-05-06 23:58 39.31514 -104.27042 14724 ft 284 kts 283°
2026-05-06 23:58 39.31902 -104.29530 14415 ft 282 kts 284°
2026-05-06 23:59 39.32290 -104.32002 14119 ft 280 kts 283°
2026-05-06 23:59 39.32679 -104.34460 13795 ft 278 kts 283°
2026-05-06 23:59 39.33065 -104.36895 13574 ft 273 kts 283°
2026-05-06 23:59 39.33440 -104.39264 13443 ft 265 kts 283°
2026-05-07 00:00 39.33803 -104.41564 13312 ft 257 kts 283°
2026-05-07 00:00 39.34155 -104.43795 13191 ft 250 kts 283°
2026-05-07 00:00 39.34501 -104.45989 12930 ft 248 kts 283°
2026-05-07 00:00 39.34843 -104.48165 12671 ft 247 kts 283°
2026-05-07 00:01 39.35183 -104.50327 12451 ft 243 kts 283°
2026-05-07 00:01 39.35512 -104.52432 12345 ft 235 kts 283°
2026-05-07 00:01 39.35831 -104.54473 12225 ft 228 kts 283°
2026-05-07 00:01 39.36143 -104.56476 12111 ft 227 kts 283°
2026-05-07 00:02 39.36456 -104.58475 12062 ft 227 kts 283°
2026-05-07 00:02 39.36845 -104.60446 12039 ft 227 kts 288°
2026-05-07 00:02 39.37323 -104.62396 12045 ft 228 kts 289°
2026-05-07 00:02 39.37812 -104.64351 12023 ft 229 kts 291°
2026-05-07 00:03 39.38680 -104.66046 11948 ft 231 kts 315°
2026-05-07 00:03 39.39984 -104.67294 11609 ft 241 kts 327°
2026-05-07 00:03 39.41442 -104.68389 11274 ft 244 kts 328°
2026-05-07 00:03 39.43014 -104.69176 10930 ft 245 kts 349°
2026-05-07 00:04 39.44706 -104.69275 10680 ft 242 kts 357°
2026-05-07 00:04 39.46383 -104.69239 10406 ft 240 kts 358°
2026-05-07 00:04 39.48050 -104.69198 10136 ft 238 kts 358°
2026-05-07 00:04 39.49705 -104.69160 10049 ft 240 kts 358°
2026-05-07 00:05 39.51385 -104.69132 10018 ft 242 kts 358°
2026-05-07 00:05 39.53056 -104.69108 9995 ft 238 kts 358°
2026-05-07 00:05 39.54698 -104.69085 10006 ft 233 kts 358°
2026-05-07 00:05 39.56308 -104.69065 9989 ft 231 kts 358°
2026-05-07 00:06 39.57918 -104.69045 10001 ft 232 kts 358°
2026-05-07 00:06 39.59546 -104.69026 9877 ft 237 kts 358°
2026-05-07 00:06 39.61206 -104.69007 9648 ft 239 kts 358°
2026-05-07 00:06 39.62865 -104.68987 9418 ft 237 kts 358°
2026-05-07 00:07 39.64504 -104.68968 9206 ft 233 kts 358°
2026-05-07 00:07 39.66116 -104.68949 8998 ft 231 kts 358°
2026-05-07 00:07 39.67709 -104.68931 8754 ft 226 kts 358°
2026-05-07 00:07 39.69256 -104.68913 8498 ft 218 kts 358°
2026-05-07 00:08 39.70746 -104.68896 8239 ft 210 kts 358°
2026-05-07 00:08 39.72178 -104.68880 7979 ft 203 kts 358°
2026-05-07 00:08 39.73554 -104.68863 7712 ft 191 kts 358°
2026-05-07 00:08 39.74851 -104.68849 7508 ft 186 kts 358°
2026-05-07 00:09 39.76133 -104.68835 7285 ft 189 kts 358°
2026-05-07 00:09 39.77509 -104.68821 7228 ft 200 kts 358°
2026-05-07 00:09 39.78867 -104.68804 6975 ft 188 kts 359°
2026-05-07 00:09 39.80125 -104.68789 6727 ft 175 kts 359°
2026-05-07 00:10 39.81323 -104.68776 6491 ft 172 kts 359°
2026-05-07 00:10 39.82521 -104.68772 6098 ft 174 kts 359°
2026-05-07 00:10 39.83718 -104.68801 5891 ft 169 kts 359°
2026-05-07 00:10 39.84887 -104.68791 5688 ft 168 kts
2026-05-07 00:11 39.86055 -104.68732 5496 ft 168 kts
2026-05-07 00:11 39.87190 -104.68694 5375 ft 152 kts 355°
2026-05-07 00:11 39.88107 -104.68698 5360 ft 102 kts
2026-05-07 00:11 39.88469 -104.68657 5359 ft 35 kts 21°
2026-05-07 00:12 39.88597 -104.68518 5359 ft 20 kts 104°
2026-05-07 00:12 39.88511 -104.68480 5359 ft 0 kts 179°
2026-05-07 00:12 39.88506 -104.68480 5359 ft 2 kts 179°
2026-05-07 00:13 39.88481 -104.68479 5359 ft 5 kts 179°
2026-05-07 00:13 39.88433 -104.68479 5359 ft 9 kts 179°
2026-05-07 00:13 39.88358 -104.68477 5359 ft 12 kts 179°
2026-05-07 00:13 39.88263 -104.68475 5359 ft 15 kts 180°
2026-05-07 00:14 39.88149 -104.68482 5359 ft 18 kts 182°
2026-05-07 00:14 39.88028 -104.68485 5360 ft 17 kts 180°
2026-05-07 00:14 39.87911 -104.68486 5360 ft 17 kts 180°
2026-05-07 00:14 39.87798 -104.68488 5360 ft 16 kts 180°
2026-05-07 00:15 39.87689 -104.68488 5360 ft 15 kts 180°
2026-05-07 00:15 39.87585 -104.68489 5360 ft 15 kts 180°
2026-05-07 00:15 39.87487 -104.68489 5361 ft 14 kts 180°
2026-05-07 00:15 39.87392 -104.68491 5360 ft 13 kts 181°
2026-05-07 00:16 39.87301 -104.68492 5361 ft 13 kts 180°
2026-05-07 00:16 39.87212 -104.68493 5361 ft 13 kts 180°
2026-05-07 00:16 39.87120 -104.68494 5361 ft 14 kts 180°
2026-05-07 00:16 39.87016 -104.68495 5360 ft 15 kts 180°
2026-05-07 00:17 39.86912 -104.68496 5361 ft 15 kts 180°
2026-05-07 00:17 39.86814 -104.68498 5360 ft 14 kts 181°
2026-05-07 00:17 39.86718 -104.68501 5361 ft 14 kts 181°
2026-05-07 00:17 39.86604 -104.68502 5361 ft 18 kts 180°
2026-05-07 00:18 39.86476 -104.68503 5361 ft 18 kts 180°
2026-05-07 00:18 39.86351 -104.68503 5363 ft 18 kts 180°
2026-05-07 00:18 39.86231 -104.68503 5365 ft 17 kts 180°
2026-05-07 00:18 39.86121 -104.68503 5365 ft 14 kts 181°
2026-05-07 00:19 39.86039 -104.68479 5369 ft 13 kts 126°
2026-05-07 00:19 39.86032 -104.68369 5370 ft 12 kts 90°
2026-05-07 00:19 39.86032 -104.68259 5375 ft 12 kts 91°
2026-05-07 00:19 39.86018 -104.68155 5376 ft 12 kts 95°
2026-05-07 00:20 39.86018 -104.68051 5379 ft 11 kts 89°
2026-05-07 00:20 39.86008 -104.67962 5378 ft 10 kts 130°
2026-05-07 00:20 39.85950 -104.67948 5377 ft 4 kts 180°
2026-05-07 00:20 39.85941 -104.67948 5378 ft 0 kts 181°